[Date Prev][Date Next][Thread Prev][Thread Next] - [Date Index][Thread Index][Author Index]

2 Line ISS Keps 2-1



ISS
1 25544U 98067A   02032.19959491  .00075252  00000-0  93002-3 0   252
2 25544  51.6387  16.5834 0006695  21.2867 156.3971 15.59424816182818


----
Via the sarex mailing list at AMSAT.ORG courtesy of AMSAT-NA.
To unsubscribe, send "unsubscribe sarex" to Majordomo@amsat.org



AMSAT Top AMSAT Home